Location: Quebec
(46.8000°N, 71.2500°W)
Time: 14:49:14
(UTC-04:00)

Envisat - Pass Details

Date: 14 October 2017
Orbit: 764 x 766 km, 98.2° (Epoch: 17 October)

Event Time Altitude Azimuth Distance (km) Brightness Sun altitude
Exits shadow 20:20:01 71° 129° (SE) 811 2.8 -24.7°
Maximum altitude 20:20:29 79° 74° (ENE) 785 2.8 -24.8°
Drops below altitude 10° 20:25:35 10° 349° (NNW) 2,313 5.8 -25.6°
Sets 20:27:54 0° 348° (NNW) 3,243 6.6 -26.0°
